Change the Weather History Date:

Wednesday, May 1, 2013

  Actual Average Record
Temperature  
Mean Temperature 30 °F 53 °F  
Max Temperature 35 °F 67 °F 89 °F (1959)
Min Temperature 25 °F 39 °F 19 °F (1967)
Degree Days  
Heating Degree Days 35 12  
Month to date heating degree days 35 12  
Since 1 July heating degree days 6385 5924  
Cooling Degree Days 0 0  
Month to date cooling degree days 0 0  
Year to date cooling degree days 0 1  
Moisture  
Dew Point 26 °F    
Average Humidity 87    
Maximum Humidity 96    
Minimum Humidity 78    
Precipitation  
Precipitation 0.17 in 0.10 in 0.99 in (1983)
Month to date precipitation 0.17 0.10  
Year to date precipitation 2.35 3.77  
Sea Level Pressure  
Sea Level Pressure 30.37 in    
Wind  
Wind Speed 16 mph (NNE)    
Max Wind Speed 25 mph    
Max Gust Speed 31 mph    
Visibility 2 miles    
Events Fog , Rain , Snow    
T = Trace of Precipitation, MM = Missing Value Source: NWS Daily Summary

Daily Weather History Graph

Daily Weather History Graph

Search for Another Location

Airport or City:

Trip Planner

Search our weather history database for the weather conditions in past years. The results will help you decide how hot, cold, wet, or windy it might be!

Date:

Astronomy

May. 01, 2013 Rise Set
Actual Time 5:49 AM MDT 7:49 PM MDT
Civil Twilight 5:19 AM MDT 8:19 PM MDT
Nautical Twilight 4:42 AM MDT 8:56 PM MDT
Astronomical Twilight 4:03 AM MDT 9:35 PM MDT
Moon 1:00 AM MDT (5/1) 11:30 AM MDT (5/1)
Length of Visible Light 14h 59m
Length of Day
13h 59m
Waning Gibbous, 58% of the Moon is Illuminated
May 1
Waning Gibbous
May 2
Last Quarter
May 9
New
May 17
First Quarter
May 24
Full

Hourly Weather History & Observations

Time (MDT) Temp. Windchill Dew Point Humidity Pressure Visibility Wind Dir Wind Speed Gust Speed Precip Events Conditions
12:15 AM 35.6 °F 25.9 °F 33.8 °F 93% 30.02 in 10.0 mi NNE 16.1 mph - 0.00 in   Overcast
12:48 AM 35.6 °F 26.6 °F 33.8 °F 93% 30.06 in 10.0 mi NE 13.8 mph - 0.00 in   Overcast
1:53 AM 34.0 °F 23.8 °F 32.0 °F 92% 30.09 in 10.0 mi NE 16.1 mph - N/A   Overcast
2:53 AM 34.0 °F 24.6 °F 30.9 °F 89% 30.12 in 10.0 mi NE 13.8 mph - 0.00 in   Overcast
3:03 AM 33.8 °F 24.3 °F 30.2 °F 87% 30.12 in 5.0 mi NE 13.8 mph 23.0 mph 0.00 in Rain Light Rain
3:49 AM 33.8 °F 25.8 °F 30.2 °F 87% 30.15 in 2.5 mi NE 10.4 mph - 0.03 in Snow Light Snow
3:53 AM 33.1 °F 24.4 °F 30.9 °F 92% 30.15 in 2.0 mi NE 11.5 mph - 0.04 in Snow Light Snow
4:31 AM 32.0 °F 22.5 °F 30.2 °F 93% 30.17 in 1.0 mi NE 12.7 mph - 0.04 in Snow Light Snow
4:38 AM 32.0 °F 22.1 °F 30.2 °F 93% 30.17 in 0.8 mi NE 13.8 mph - 0.05 in Snow Light Snow
4:53 AM 32.0 °F 23.0 °F 30.9 °F 96% 30.19 in 0.5 mi NE 11.5 mph - 0.07 in Fog , Snow Snow
5:41 AM 32.0 °F 24.2 °F 30.2 °F 93% 30.20 in 1.0 mi NE 9.2 mph - 0.03 in Snow Light Snow
5:53 AM 32.0 °F 21.6 °F 30.0 °F 92% 30.22 in 1.0 mi NE 15.0 mph 20.7 mph 0.04 in Snow Light Snow
6:08 AM 30.2 °F 16.8 °F 28.4 °F 93% 30.21 in 0.5 mi NE 23.0 mph 27.6 mph 0.00 in Fog , Snow Snow
6:53 AM 28.9 °F 16.1 °F 27.0 °F 92% 30.28 in 0.5 mi NE 19.6 mph - 0.00 in Fog , Snow Snow
7:04 AM 28.4 °F 14.7 °F 26.6 °F 93% 30.26 in 0.5 mi NE 21.9 mph 27.6 mph 0.00 in Fog , Snow Snow
7:06 AM 28.4 °F 14.4 °F 26.6 °F 93% 30.26 in 0.5 mi NE 23.0 mph 28.8 mph 0.00 in Fog , Snow Snow
7:41 AM 28.4 °F 14.4 °F 26.6 °F 93% 30.26 in 0.8 mi NE 23.0 mph 27.6 mph 0.00 in Snow Light Snow
7:47 AM 28.4 °F 14.7 °F 26.6 °F 93% 30.26 in 1.0 mi NE 21.9 mph - 0.00 in Snow Light Snow
7:53 AM 28.0 °F 13.6 °F 25.0 °F 88% 30.30 in 1.0 mi NE 24.2 mph 29.9 mph 0.00 in Snow Light Snow
8:02 AM 28.4 °F 14.7 °F 24.8 °F 86% 30.28 in 1.2 mi NE 21.9 mph 29.9 mph 0.00 in Snow Light Snow
8:10 AM 28.4 °F 15.4 °F 24.8 °F 86% 30.29 in 1.2 mi NNE 19.6 mph 28.8 mph 0.00 in Snow Light Snow
8:25 AM 28.4 °F 15.8 °F 24.8 °F 86% 30.29 in 1.0 mi NE 18.4 mph - 0.00 in Snow Light Snow
8:36 AM 28.4 °F 15.1 °F 24.8 °F 86% 30.29 in 0.8 mi NNE 20.7 mph 25.3 mph 0.00 in Snow Light Snow
8:53 AM 28.0 °F 15.7 °F 26.1 °F 92% 30.35 in 1.0 mi NNE 17.3 mph - 0.00 in Snow Light Snow
9:22 AM 28.4 °F 14.1 °F 24.8 °F 86% 30.32 in 0.8 mi NNE 24.2 mph 29.9 mph 0.00 in Snow Light Snow
9:25 AM 28.4 °F 15.1 °F 24.8 °F 86% 30.32 in 0.8 mi NNE 20.7 mph 29.9 mph 0.00 in Snow Light Snow
9:36 AM 28.4 °F 15.1 °F 24.8 °F 86% 30.32 in 1.0 mi NNE 20.7 mph - 0.00 in Snow Light Snow
9:45 AM 28.4 °F 15.4 °F 24.8 °F 86% 30.33 in 0.8 mi NNE 19.6 mph - 0.00 in Snow Light Snow
10:02 AM 28.4 °F 15.8 °F 24.8 °F 86% 30.34 in 1.0 mi NE 18.4 mph - 0.01 in Snow Light Snow
10:12 AM 28.4 °F 16.2 °F 24.8 °F 86% 30.34 in 0.8 mi NNE 17.3 mph - 0.01 in Snow Light Snow
10:24 AM 28.4 °F 14.4 °F 24.8 °F 86% 30.34 in 0.5 mi NNE 23.0 mph 27.6 mph 0.01 in Fog , Snow Light Snow
10:46 AM 28.4 °F 14.4 °F 24.8 °F 86% 30.35 in 1.0 mi NNE 23.0 mph - 0.01 in Snow Light Snow
10:53 AM 28.9 °F 15.4 °F 24.1 °F 82% 30.42 in 1.2 mi NNE 21.9 mph - 0.01 in Snow Light Snow
10:59 AM 28.4 °F 15.1 °F 24.8 °F 86% 30.36 in 1.0 mi NNE 20.7 mph - 0.00 in Snow Light Snow
11:10 AM 28.4 °F 15.4 °F 24.8 °F 86% 30.36 in 0.8 mi NNE 19.6 mph - 0.00 in Snow Light Snow
11:27 AM 28.4 °F 15.8 °F 24.8 °F 86% 30.37 in 1.0 mi NNE 18.4 mph - 0.00 in Snow Light Snow
11:39 AM 28.4 °F 15.1 °F 24.8 °F 86% 30.37 in 0.8 mi NNE 20.7 mph - 0.00 in Snow Light Snow
11:50 AM 28.4 °F 14.7 °F 24.8 °F 86% 30.37 in 1.0 mi North 21.9 mph - 0.00 in Snow Light Snow
12:08 PM 28.4 °F 15.4 °F 24.8 °F 86% 30.38 in 1.5 mi NNE 19.6 mph - 0.00 in Snow Light Snow
12:25 PM 28.4 °F 15.1 °F 23.0 °F 80% 30.38 in 1.2 mi NNE 20.7 mph - 0.00 in Snow Light Snow
12:31 PM 28.4 °F 15.8 °F 24.8 °F 86% 30.38 in 0.8 mi NNE 18.4 mph 27.6 mph 0.00 in Snow Light Snow
12:42 PM 28.4 °F 16.2 °F 24.8 °F 86% 30.39 in 0.5 mi NNE 17.3 mph - 0.00 in Fog , Snow Snow
12:53 PM 28.9 °F 17.7 °F 25.0 °F 85% 30.48 in 0.8 mi NNE 15.0 mph - 0.00 in Snow Light Snow
1:08 PM 28.4 °F 16.6 °F 24.8 °F 86% 30.39 in 1.0 mi North 16.1 mph - 0.00 in Snow Light Snow
1:15 PM 28.4 °F 15.1 °F 24.8 °F 86% 30.39 in 0.8 mi North 20.7 mph - 0.00 in Snow Light Snow
1:26 PM 28.4 °F 15.4 °F 24.8 °F 86% 30.39 in 0.8 mi North 19.6 mph - 0.00 in Snow Light Snow
2:12 PM 28.4 °F 15.8 °F 24.8 °F 86% 30.42 in 1.2 mi North 18.4 mph - 0.00 in Snow Light Snow
2:35 PM 28.4 °F 16.2 °F 24.8 °F 86% 30.42 in 1.8 mi North 17.3 mph - 0.00 in Snow Light Snow
2:50 PM 30.2 °F 18.5 °F 24.8 °F 80% 30.43 in 1.0 mi North 17.3 mph 25.3 mph 0.00 in Snow Light Snow
3:00 PM 30.2 °F 18.9 °F 26.6 °F 86% 30.43 in 0.8 mi NNE 16.1 mph - 0.00 in Snow Light Snow
3:11 PM 28.4 °F 16.2 °F 24.8 °F 86% 30.43 in 0.5 mi NNE 17.3 mph - 0.00 in Fog , Snow Snow
3:19 PM 30.2 °F 18.5 °F 26.6 °F 86% 30.43 in 0.5 mi North 17.3 mph - 0.00 in Fog , Snow Light Snow
3:49 PM 30.2 °F 18.1 °F 26.6 °F 86% 30.42 in 1.2 mi NNE 18.4 mph - 0.00 in Snow Light Snow
3:53 PM 30.0 °F 18.3 °F 26.1 °F 85% 30.51 in 1.5 mi NNE 17.3 mph - 0.00 in Snow Light Snow
4:29 PM 30.2 °F 19.8 °F 26.6 °F 86% 30.45 in 1.0 mi NNE 13.8 mph - 0.00 in Snow Light Snow
4:47 PM 30.2 °F 20.8 °F 26.6 °F 86% 30.45 in 0.8 mi North 11.5 mph - 0.00 in Snow Light Snow
5:44 PM 30.2 °F 19.8 °F 26.6 °F 86% 30.48 in 0.8 mi North 13.8 mph - 0.01 in Snow Light Snow
5:53 PM 30.0 °F 18.7 °F 27.0 °F 88% 30.58 in 1.0 mi North 16.1 mph - 0.01 in Snow Light Snow
5:58 PM 30.2 °F 19.3 °F 26.6 °F 86% 30.48 in 1.2 mi North 15.0 mph - 0.00 in Snow Light Snow
6:05 PM 30.2 °F 19.8 °F 26.6 °F 86% 30.49 in 1.2 mi NNW 13.8 mph - 0.00 in Snow Light Snow
6:15 PM 30.2 °F 19.8 °F 26.6 °F 86% 30.50 in 1.8 mi NNW 13.8 mph - 0.00 in Snow Light Snow
6:19 PM 30.2 °F 19.8 °F 26.6 °F 86% 30.50 in 2.0 mi NNW 13.8 mph - 0.00 in Snow Light Snow
6:27 PM 30.2 °F 19.3 °F 26.6 °F 86% 30.50 in 3.0 mi NNW 15.0 mph - 0.00 in Snow Light Snow
6:33 PM 30.2 °F 19.8 °F 26.6 °F 86% 30.50 in 2.5 mi NNW 13.8 mph - 0.00 in Snow Light Snow
6:41 PM 30.2 °F 19.3 °F 26.6 °F 86% 30.50 in 1.8 mi NNW 15.0 mph - 0.00 in Snow Light Snow
6:50 PM 30.2 °F 18.9 °F 26.6 °F 86% 30.50 in 1.8 mi NNW 16.1 mph - 0.00 in Snow Light Snow
6:53 PM 30.0 °F 19.1 °F 27.0 °F 88% 30.60 in 2.0 mi NNW 15.0 mph - 0.00 in Snow Light Snow
6:59 PM 30.2 °F 18.9 °F 26.6 °F 86% 30.50 in 3.0 mi NNW 16.1 mph - 0.00 in Snow Light Snow
7:53 PM 30.0 °F 20.5 °F 26.1 °F 85% 30.62 in 10.0 mi NW 11.5 mph - 0.00 in   Overcast
8:53 PM 30.0 °F 20.0 °F 25.0 °F 82% 30.65 in 10.0 mi NW 12.7 mph - N/A   Overcast
9:53 PM 30.0 °F 19.5 °F 25.0 °F 82% 30.66 in 10.0 mi NW 13.8 mph - N/A   Overcast
10:53 PM 28.0 °F 17.0 °F 23.0 °F 81% 30.67 in 10.0 mi NW 13.8 mph - N/A   Overcast
11:53 PM 25.0 °F 14.2 °F 21.0 °F 85% 30.70 in 10.0 mi WNW 11.5 mph - N/A   Mostly Cloudy